This demonstration page uses our WeatherBlox Daily Observations layout. Learn more.

Left ArrowRight Arrow

41.86663, -103.66717

Hourly Observations for August 27, 2018

Temp ( °F °C ) Dew Point ( °F °C ) Humidity (%) Winds ( mph kmh ) Pressure ( in mb ) Visibility ( mi km ) Precip ( " mm )
12:53 am 00:53 Mostly Clear 70 21.1 53 11.7 55 55 ESE 7 11 29.60 1002 10 16 0.00 0.00
1:53 am 01:53 Clear 70 21.1 52 11.1 53 53 S 8 13 29.62 1003 10 16 0.00 0.00
2:53 am 02:53 Clear with Nearby Thunderstorms 70 21.1 52 11.1 53 53 ENE 8 13 29.58 1002 10 16 0.00 0.00
3:41 am 03:41 Mostly Cloudy 71 21.7 56 13.3 59 59 SE 9 15 29.50 999 10 16 0.01 0.25
3:51 am 03:51 Mostly Cloudy with Nearby Thunderstorms 72 22 57 14 61 61 SE 9 15 29.50 999 10 16 0.01 0.25
3:53 am 03:53 Mostly Cloudy with Nearby Thunderstorms 73 22.8 55 12.8 53 53 SE 10 17 29.56 1001 10 16 0.01 0.25
4:20 am 04:20 Mostly Cloudy with Light Rain 70 21 55 13 60 60 W 12 19 29.59 1002 10 16 0.00 0.00
4:53 am 04:53 Mostly Cloudy 64 17.8 58 14.4 81 81 undefined N/A 29.57 1001 10 16 0.01 0.25
5:53 am 05:53 Clear 62 16.7 57 13.9 84 84 S 6 9 29.60 1002 10 16 0.00 0.00
6:53 am 06:53 Partly Cloudy 65 18.3 55 12.8 70 70 WNW 7 11 29.64 1004 10 16 0.00 0.00
7:53 am 07:53 Sunny 65 18.3 53 11.7 66 66 NNE 5 7 29.64 1004 10 16 0.00 0.00
8:53 am 08:53 Sunny 66 18.9 56 13.3 70 70 E 6 9 29.66 1004 9 14 0.00 0.00
9:53 am 09:53 Sunny 71 21.7 56 13.3 59 59 E 5 7 29.65 1004 9 14 0.00 0.00
10:53 am 10:53 Sunny 75 23.9 57 13.9 54 54 VRB 5 7 29.62 1003 9 14 0.00 0.00
11:53 am 11:53 Mostly Sunny 82 27.8 56 13.3 41 41 NNW 9 15 29.60 1003 10 16 0.00 0.00
12:14 pm 12:14 Mostly Cloudy with Nearby Thunderstorms 75 23.9 59 15 58 58 WSW 8 13 29.53 1000 9 14 0.00 0.03
12:34 pm 12:34 Partly Cloudy 79 26 57 14 48 48 W 6 9 29.47 998 10 16 0.00 0.00
12:53 pm 12:53 Sunny 83 28.3 55 12.8 38 38 VRB 6 9 29.59 1002 10 16 0.00 0.03
1:53 pm 13:53 Sunny 87 30.6 52 11.1 30 30 VRB 6 9 29.57 1002 10 16 0.00 0.00
2:53 pm 14:53 Mostly Sunny 84 28.9 52 11.1 33 33 S 10 17 29.58 1002 10 16 0.00 0.03
3:53 pm 15:53 Sunny 85 29.4 53 11.7 33 33 S 12 19 29.57 1001 10 16 0.00 0.00
4:53 pm 16:53 Mostly Sunny 87 30.6 51 10.6 29 29 SSE 3 6 29.59 1002 10 16 0.00 0.00
5:53 pm 17:53 Hazy 83 28.3 50 10 32 32 NW 10 17 29.62 1003 4 6 0.00 0.00
6:53 pm 18:53 Mostly Cloudy with Haze 77 25 48 8.9 36 36 NW 10 17 29.64 1004 4 6 0.00 0.00
7:53 pm 19:53 Clear 69 20.6 49 9.4 49 49 NW 9 15 29.68 1005 7 11 0.00 0.00
8:53 pm 20:53 Clear 70 21.1 48 8.9 46 46 N 17 28 29.74 1007 10 16 0.00 0.00
9:53 pm 21:53 Clear 65 18.3 49 9.4 56 56 N 13 20 29.79 1009 10 16 0.00 0.00
10:53 pm 22:53 Clear 62 16.7 48 8.9 60 60 NW 9 15 29.84 1010 10 16 0.00 0.00
11:53 pm 23:53 Clear 61 16.1 47 8.3 60 60 undefined N/A 29.84 1011 10 16 0.00 0.00

Powered by AerisWeather